Skip Page Navigation
NASA JPL Caltech
NASA Logo - Jet Propulsion Laboratory + View the NASA Portal
+ Center for Near-Earth Object Studies
JPL Home Earth Solar System Stars & Galaxies Technology
JPL Solar System Dynamics
BODIES ORBITS EPHEMERIDES TOOLS PHYSICAL DATA DISCOVERY FAQ SITE MAP
IMPORTANT: The SSD Announcement email list is now available. Major changes are coming in the near future, including possible hostname and/or URL changes. To be notified of such changes, subscribe to this email list.

Please visit this page for more details.


JPL Small-Body Database Browser
Search: [ help ]  
452433 (2003 FS22)
Classification: Main-belt Asteroid          SPK-ID: 2452433
Ephemeris | Orbit Diagram | Orbital Elements | Mission Design | Physical Parameters | Discovery Circumstances ]

[ show orbit diagram ]
Orbital Elements at Epoch 2458600.5 (2019-Apr-27.0) TDB
Reference: JPL 9 (heliocentric ecliptic J2000)
 Element Value Uncertainty (1-sigma)   Units 
e .125174482411652 9.8091e-08  
a 2.313566128021784 2.2731e-08 au
q 2.023966685421527 2.1632e-07 au
i 5.635875470419363 1.5404e-05 deg
node 357.3370627827592 7.8543e-05 deg
peri 242.5255521095586 0.0001045 deg
M 149.6875563106124 7.3266e-05 deg
tp 2458066.053176008108
(2017-Nov-08.55317601)
0.00025978 TDB
period 1285.349706944482
3.52
1.8943e-05
5.186e-08
d
yr
n .2800794196746562 4.1278e-09 deg/d
Q 2.60316557062204 2.5577e-08 au
  Orbit Determination Parameters
   # obs. used (total)      114  
   data-arc span      8236 days (22.55 yr)  
   first obs. used      1996-03-18  
   last obs. used      2018-10-05  
   planetary ephem.      DE431  
   SB-pert. ephem.      SB431-N16  
   condition code      0  
   norm. resid. RMS      .53782  
   source      ORB  
   producer      Otto Matic  
   solution date      2019-Jul-13 17:28:55  

Additional Information
 Earth MOID = 1.01939 au 
 Jupiter MOID = 2.41837 au 
 T_jup = 3.566 
[ show covariance matrix ]

Ephemeris | Orbit Diagram | Orbital Elements | Mission Design | Physical Parameters | Discovery Circumstances ]

Physical Parameter Table
Parameter Symbol Value Units Sigma Reference Notes
absolute magnitude H 17.7   n/a MPO456154  

452433 (2003 FS22)          Discovered 2003-Mar-26 by Spacewatch at Kitt Peak
Reference: Last Updated: 2016-01-04

Alternate Designations
 2003 FS22 = 2003 FO128 = 2010 CO154 
Ephemeris | Orbit Diagram | Orbital Elements | Mission Design | Physical Parameters | Discovery Circumstances ]
ABOUT SSD CREDITS/AWARDS PRIVACY/COPYRIGHT GLOSSARY LINKS
FirstGov 2019-Dec-07 12:28 UT
(server date/time)  
NASA Home Page
Site Manager:   Ryan S. Park
Webmaster  Alan B. Chamberlin